Location: Home
(42.5358°N, 72.7383°W)
Time: 00:21:23
(UTC-05:00)

Vanguard 1 - Pass Details

Date: 30 November 2021
Orbit: 652 x 3830 km, 34.2° (Epoch: 21 January)

Event Time Altitude Azimuth Distance (km) Brightness Sun altitude
Rises 08:10:36 0° 279° (W) 6,629 13.8 9.7°
Reaches altitude 10° 08:18:46 10° 258° (WSW) 4,785 13.3 10.8°
Maximum altitude 08:23:38 13° 235° (SW) 3,980 13.1 11.5°
Drops below altitude 10° 08:27:38 10° 211° (SSW) 3,743 13.3 12.0°
Sets 08:32:22 0° 184° (S) 4,140 14.0 12.6°
